OBJECT Y, 63232

Orbit data source: Space-Track

You're viewing an Uncataloged Satellite

Recently launched and/or uncataloged satellites may have evolving metadata. Metadata may include but not limited to: Owner, Maufacturer, Bus, Motor, and Mission.

OBJECT Y, 63232 is a satellite in SSO that was launched on Sat, 15 Mar 2025 UTC via an FALCON 9 launch vehicle from the Air Force Western Test Range (AFWTR). Unknown objects in Earth's orbit typically refer to objects detected orbiting the Earth but have not yet been identified or cataloged. These objects could be anything from previously untracked satellites, spent rocket stages, debris from satellite collisions, or even natural meteoroids temporarily captured by Earth's gravity.

Loading next visibility...
Identifier
63232, 2025-052Y
Orbit
SSO
Country
Flag of TBDTBD
Related business
Manufacturer
Astro Digital
Mission
Operational Commercial Technology
Bus & Motor
CORVUS-MICRO, Unknown motor
Mass
32 kg wet, 32 kg dry
Launch date (UTC)
2025-03-15 (1 year ago)
Launch vehicle
FALCON 9
Launch site
Air Force Western Test Range (AFWTR)
Object type
Unknown
Shape & HBR
Box, 1.1 m
Radar Cross Section
0.400 m², Medium (>0.1 m² and < 1m²)

Expand to show TLE details & history
Last TLE update: 14 hours ago

TLE from 14 hours ago
0 OBJECT Y
1 63232U 25052Y   26129.65102160  .00004964  00000-0  21092-3 0  9991
2 63232  97.3992  23.1942 0004015 291.8760  68.2050 15.23501821 64000
Epoch: 2026-05-09T15:37Z
TLE epoch observation values (Epoch: 2026-05-09T15:37:28.266Z)
Latitude
0.00001°
Longitude
-78.63898°
Altitude
497.359 km
Speed
7.616 km/s
True Right ascension
01h 32m 46s
True Declination
0° 00' 00"
Sunlit
Object was in daylight at epoch
Visualization orbit readout
Latitude
Unknown
Longitude
Unknown
Altitude
Unknown
Speed
Unknown
Apparent Right ascension
Unknown
Apparent Declination
Unknown
Sunlit
N/A
Visualization observer readout
Local Sidereal Time
13:32:07
Azimuth
Unknown
Elevation
Unknown
Doppler factor
Unknown
Orbital elements
Apogee altitude
495.007 km
Perigee altitude
489.49 km
Semi-major axis
6,870.386 km
Eccentricity
0.0004
Inclination
97.3992°
RAAN
23.1942°
Arg. of periapsis
291.876°
True anomaly
68.24773°
Mean anomaly
68.205°
Eccentric anomaly
68.22636°
Mean motion
3.81129 °/min
Orbital period
94.46 mins
BSTAR
0.00021092
Loading maneuver chart data...
Computing Atmospheric mass density...
Loading historical data...
Loading historical data...
Loading historical data...
Loading historical data...
Loading historical data...
Loading historical data...
Loading historical data...

Documentation

Showing up to 5 results
|